カタログに戻る

STARLINK-32623

運用中通信VLEO
NORAD 62152·PAYLOAD·🇺🇸 United States

打ち上げ Nov 30, 2024 から Cape Canaveral Space Force Station

Loading…

次のパス (今後24時間)

TLE

最新Source: CelesTrak SupGP

元期: Sep 14, 2026, 22:31 UTC

1 62152C 24224P   26257.93868056 -.00051073  00000+0 -18497-2 0  2572
2 62152  43.0001 172.6413 0001198 267.7144 136.8562 15.27607318    12

AllMySatでSTARLINK-32623をリアルタイム追跡

Download on the App Store